Location: Ferris
(32.5340°N, 96.6656°W)
Time: 17:52:26
(UTC+00:00)

Cosmos 1354 Rocket - Visible Passes

Search period start: 17 May 2026 00:00
Search period end: 27 May 2026 00:00
Orbit: 760 x 779 km, 74.0° (Epoch: 17 May)

Date Brightness Start Highest point End Pass type
(mag) Time Alt. Az. Time Alt. Az. Time Alt. Az.
17 May 5.2 04:09:28 10° N 04:13:01 33° NE 04:13:01 33° NE visible
17 May 6.6 05:52:28 10° NW 05:53:19 13° WNW 05:53:19 13° WNW visible
18 May 5.5 03:33:28 10° NNE 03:37:08 22° ENE 03:37:08 22° ENE visible
18 May 5.9 05:14:54 10° NW 05:17:26 24° WNW 05:17:26 24° WNW visible
19 May 6.0 02:58:21 10° NE 03:00:31 12° ENE 03:01:16 12° ENE visible
19 May 4.9 04:37:53 10° NNW 04:41:34 44° NW 04:41:34 44° NW visible
20 May 4.2 04:01:11 10° NNW 04:05:44 62° NNE 04:05:44 62° NNE visible
21 May 4.6 03:24:48 10° N 03:29:40 38° ENE 03:29:55 38° ENE visible
21 May 6.2 05:07:48 10° NW 05:10:14 18° W 05:10:14 18° W visible
22 May 5.4 02:48:48 10° NNE 02:52:49 22° ENE 02:54:10 20° E visible
22 May 5.2 04:30:14 10° NW 04:34:27 34° W 04:34:27 34° W visible
23 May 6.0 02:13:40 10° NE 02:15:51 12° ENE 02:18:01 10° E visible
23 May 4.1 03:53:12 10° NNW 03:58:21 64° WSW 03:58:43 62° SW visible
24 May 3.9 03:16:30 10° NNW 03:21:43 71° ENE 03:23:01 49° SE visible
25 May 4.6 02:40:07 10° N 02:44:58 38° ENE 02:47:22 25° ESE visible
25 May 6.0 04:23:07 10° NW 04:26:41 19° W 04:27:41 18° WSW visible
26 May 5.4 02:04:07 10° NNE 02:08:08 22° ENE 02:11:45 11° ESE visible
26 May 5.2 03:45:33 10° NW 03:50:13 34° W 03:52:04 26° SW visible
